Time,TemperatureF,DewpointF,PressureIn,WindDirection,WindDirectionDegrees,WindSpeedMPH,WindSpeedGustMPH,Humidity,HourlyPrecipIn,Conditions,Clouds,dailyrainin,SoftwareType,DateUTC
2013-11-27 00:22:00,27.0,21.0,29.92,NNE,16,2.0,6.0,79,0.00,,,0.00,,2013-11-27 05:22:00,
2013-11-27 00:33:00,27.0,21.0,29.92,NNE,16,2.0,6.0,79,0.00,,,0.00,,2013-11-27 05:33:00,
2013-11-27 00:42:00,27.0,21.0,29.92,NNE,16,2.0,6.0,79,0.00,,,0.00,,2013-11-27 05:42:00,
2013-11-27 00:53:00,26.0,19.0,29.93,WSW,244,1.0,7.0,75,0.00,,,0.00,,2013-11-27 05:53:00,
2013-11-27 01:22:00,25.0,18.0,29.93,North,355,0.0,7.0,75,0.00,,,0.00,,2013-11-27 06:22:00,
2013-11-27 01:42:00,25.0,19.0,29.93,NNW,338,3.0,11.0,76,0.00,,,0.00,,2013-11-27 06:42:00,
2013-11-27 01:52:00,25.0,19.0,29.92,North,5,2.0,5.0,76,0.00,,,0.00,,2013-11-27 06:52:00,
2013-11-27 02:22:00,25.0,19.0,29.92,North,0,0.0,1.0,77,0.00,,,0.00,,2013-11-27 07:22:00,
2013-11-27 02:42:00,25.0,19.0,29.93,WSW,242,0.0,9.0,76,0.00,,,0.00,,2013-11-27 07:42:00,
2013-11-27 02:52:00,24.0,17.0,29.93,NNW,336,0.0,7.0,74,0.00,,,0.00,,2013-11-27 07:52:00,
2013-11-27 03:12:00,24.0,17.0,29.93,North,355,0.0,4.0,75,0.00,,,0.00,,2013-11-27 08:12:00,
2013-11-27 03:22:00,23.0,17.0,29.93,NNW,337,0.0,8.0,76,0.00,,,0.00,,2013-11-27 08:22:00,
2013-11-27 03:43:00,23.0,17.0,29.93,NW,304,0.0,2.0,77,0.00,,,0.00,,2013-11-27 08:43:00,
2013-11-27 03:53:00,23.0,17.0,29.93,NW,304,0.0,2.0,77,0.00,,,0.00,,2013-11-27 08:53:00,
2013-11-27 04:22:00,21.0,16.0,29.92,WSW,255,0.0,4.0,79,0.00,,,0.00,,2013-11-27 09:22:00,
2013-11-27 04:54:00,20.0,15.0,29.92,NNW,342,0.0,0.0,80,0.00,,,0.00,,2013-11-27 09:54:00,
2013-11-27 05:23:00,20.0,15.0,29.92,NW,306,0.0,0.0,81,0.00,,,0.00,,2013-11-27 10:23:00,
2013-11-27 05:42:00,20.0,15.0,29.92,West,281,0.0,0.0,82,0.00,,,0.00,,2013-11-27 10:42:00,
2013-11-27 05:53:00,19.0,14.0,29.92,WNW,282,0.0,0.0,82,0.00,,,0.00,,2013-11-27 10:53:00,
2013-11-27 06:22:00,19.0,15.0,29.93,West,267,0.0,0.0,83,0.00,,,0.00,,2013-11-27 11:22:00,
2013-11-27 06:42:00,18.0,14.0,29.93,NW,305,0.0,1.0,83,0.00,,,0.00,,2013-11-27 11:42:00,
2013-11-27 06:53:00,18.0,14.0,29.93,West,271,0.0,0.0,83,0.00,,,0.00,,2013-11-27 11:53:00,
2013-11-27 07:22:00,18.0,14.0,29.93,WSW,256,0.0,0.0,84,0.00,,,0.00,,2013-11-27 12:22:00,
2013-11-27 07:52:00,18.0,14.0,29.93,NW,313,0.0,1.0,85,0.00,,,0.00,,2013-11-27 12:52:00,
2013-11-27 08:22:00,18.0,14.0,29.94,WSW,257,0.0,0.0,84,0.00,,,0.00,,2013-11-27 13:22:00,
2013-11-27 08:42:00,19.0,15.0,29.94,WSW,257,0.0,1.0,85,0.00,,,0.00,,2013-11-27 13:42:00,
2013-11-27 08:52:00,19.0,15.0,29.94,WNW,284,0.0,0.0,85,0.00,,,0.00,,2013-11-27 13:52:00,
2013-11-27 09:22:00,21.0,16.0,29.94,SW,214,1.0,3.0,82,0.00,,,0.00,,2013-11-27 14:22:00,
2013-11-27 09:53:00,23.0,17.0,29.95,NW,323,0.0,5.0,78,0.00,,,0.00,,2013-11-27 14:53:00,
2013-11-27 10:22:00,24.0,17.0,29.94,NNW,346,0.0,6.0,75,0.00,,,0.00,,2013-11-27 15:22:00,
2013-11-27 10:44:00,25.0,17.0,29.94,North,9,0.0,6.0,72,0.00,,,0.00,,2013-11-27 15:44:00,
2013-11-27 10:53:00,25.0,17.0,29.94,NW,317,4.0,12.0,71,0.00,,,0.00,,2013-11-27 15:53:00,
2013-11-27 11:04:00,25.0,17.0,29.94,NW,317,4.0,12.0,71,0.00,,,0.00,,2013-11-27 16:04:00,
2013-11-27 11:13:00,25.0,17.0,29.94,NW,317,4.0,12.0,71,0.00,,,0.00,,2013-11-27 16:13:00,
2013-11-27 11:24:00,26.0,18.0,29.94,NW,310,1.0,5.0,70,0.00,,,0.00,,2013-11-27 16:24:00,
2013-11-27 11:43:00,26.0,17.0,29.94,NNW,342,0.0,5.0,69,0.00,,,0.00,,2013-11-27 16:43:00,
2013-11-27 11:53:00,26.0,17.0,29.94,North,0,2.0,6.0,68,0.00,,,0.00,,2013-11-27 16:53:00,
2013-11-27 12:22:00,26.0,16.0,29.93,WNW,303,0.0,13.0,66,0.00,,,0.00,,2013-11-27 17:22:00,
2013-11-27 12:42:00,26.0,15.0,29.93,North,350,2.0,7.0,62,0.00,,,0.00,,2013-11-27 17:42:00,
2013-11-27 12:52:00,26.0,15.0,29.93,North,350,2.0,7.0,62,0.00,,,0.00,,2013-11-27 17:52:00,
2013-11-27 13:12:00,26.0,14.0,29.93,North,10,1.0,6.0,60,0.00,,,0.00,,2013-11-27 18:12:00,
2013-11-27 13:22:00,27.0,14.0,29.93,WNW,296,0.0,9.0,58,0.00,,,0.00,,2013-11-27 18:22:00,
2013-11-27 13:43:00,27.0,14.0,29.93,NW,319,3.0,10.0,58,0.00,,,0.00,,2013-11-27 18:43:00,
2013-11-27 13:52:00,27.0,15.0,29.93,NW,322,2.0,6.0,61,0.00,,,0.00,,2013-11-27 18:52:00,
2013-11-27 14:22:00,27.0,14.0,29.93,NNW,336,2.0,7.0,57,0.00,,,0.00,,2013-11-27 19:22:00,
2013-11-27 14:32:00,27.0,14.0,29.93,NNW,336,2.0,7.0,57,0.00,,,0.00,,2013-11-27 19:32:00,
2013-11-27 14:42:00,27.0,14.0,29.93,NNW,336,2.0,7.0,57,0.00,,,0.00,,2013-11-27 19:42:00,
2013-11-27 14:52:00,27.0,13.0,29.93,WNW,303,0.0,6.0,55,0.00,,,0.00,,2013-11-27 19:52:00,
2013-11-27 15:22:00,28.0,14.0,29.94,North,355,0.0,10.0,54,0.00,,,0.00,,2013-11-27 20:22:00,
2013-11-27 15:42:00,28.0,14.0,29.94,North,0,0.0,4.0,55,0.00,,,0.00,,2013-11-27 20:42:00,
2013-11-27 15:52:00,27.0,12.0,29.95,North,9,0.0,12.0,53,0.00,,,0.00,,2013-11-27 20:52:00,
2013-11-27 16:22:00,27.0,13.0,29.97,SE,136,0.0,3.0,55,0.00,,,0.00,,2013-11-27 21:22:00,
2013-11-27 16:33:00,27.0,13.0,29.97,SE,136,0.0,3.0,55,0.00,,,0.00,,2013-11-27 21:33:00,
2013-11-27 16:43:00,27.0,13.0,29.97,SE,136,0.0,3.0,55,0.00,,,0.00,,2013-11-27 21:43:00,
2013-11-27 16:53:00,25.0,12.0,29.98,SW,215,2.0,5.0,56,0.00,,,0.00,,2013-11-27 21:53:00,
2013-11-27 17:13:00,25.0,12.0,29.98,NNE,17,3.0,10.0,56,0.00,,,0.00,,2013-11-27 22:13:00,
2013-11-27 17:23:00,24.0,11.0,30.00,WNW,292,0.0,1.0,56,0.00,,,0.00,,2013-11-27 22:23:00,
2013-11-27 17:43:00,24.0,11.0,30.01,NW,304,0.0,0.0,58,0.00,,,0.00,,2013-11-27 22:43:00,
2013-11-27 17:52:00,23.0,10.0,30.01,NE,34,0.0,0.0,58,0.00,,,0.00,,2013-11-27 22:52:00,
2013-11-27 18:12:00,23.0,11.0,30.02,NNE,14,0.0,0.0,59,0.00,,,0.00,,2013-11-27 23:12:00,
2013-11-27 18:22:00,22.0,10.0,30.03,NNE,32,0.0,0.0,60,0.00,,,0.00,,2013-11-27 23:22:00,
2013-11-27 18:53:00,21.0,11.0,30.04,NE,40,0.0,0.0,64,0.00,,,0.00,,2013-11-27 23:53:00,
2013-11-27 19:12:00,20.0,11.0,30.05,NE,40,0.0,0.0,66,0.00,,,0.00,,2013-11-28 00:12:00,
2013-11-27 19:22:00,20.0,11.0,30.06,NE,40,0.0,0.0,68,0.00,,,0.00,,2013-11-28 00:22:00,
2013-11-27 19:42:00,20.0,11.0,30.07,NNE,30,0.0,0.0,68,0.00,,,0.00,,2013-11-28 00:42:00,
2013-11-27 19:52:00,20.0,11.0,30.07,NNE,30,0.0,0.0,69,0.00,,,0.00,,2013-11-28 00:52:00,
2013-11-27 20:12:00,19.0,11.0,30.07,NNE,30,0.0,0.0,72,0.00,,,0.00,,2013-11-28 01:12:00,
2013-11-27 20:22:00,18.0,11.0,30.07,NNE,30,0.0,0.0,73,0.00,,,0.00,,2013-11-28 01:22:00,
2013-11-27 20:42:00,18.0,11.0,30.07,NNE,30,0.0,0.0,74,0.00,,,0.00,,2013-11-28 01:42:00,
2013-11-27 20:52:00,18.0,11.0,30.07,NNE,30,0.0,0.0,75,0.00,,,0.00,,2013-11-28 01:52:00,
2013-11-27 21:21:00,16.0,10.0,30.08,NNE,30,0.0,0.0,78,0.00,,,0.00,,2013-11-28 02:21:00,
2013-11-27 22:11:00,18.0,13.0,30.09,NNE,30,0.0,0.0,79,0.00,,,0.00,,2013-11-28 03:11:00,
2013-11-27 22:22:00,18.0,12.0,30.09,NNE,30,0.0,0.0,78,0.00,,,0.00,,2013-11-28 03:22:00,
2013-11-27 22:44:00,19.0,13.0,30.09,NNE,30,0.0,0.0,78,0.00,,,0.00,,2013-11-28 03:44:00,
2013-11-27 22:53:00,19.0,13.0,30.10,NNE,30,0.0,0.0,78,0.00,,,0.00,,2013-11-28 03:53:00,
2013-11-27 23:23:00,19.0,14.0,30.10,NNE,30,0.0,0.0,79,0.00,,,0.00,,2013-11-28 04:23:00,
2013-11-27 23:42:00,19.0,14.0,30.10,NNE,30,0.0,0.0,79,0.00,,,0.00,,2013-11-28 04:42:00,
2013-11-27 23:52:00,19.0,14.0,30.10,NNE,30,0.0,0.0,79,0.00,,,0.00,,2013-11-28 04:52:00,